Simultaneous Nadir Overpasses (SNOs) Predictions

Prediction of SNOs between GOES-17 and FY3D Satellite Orbit:

Table of predicted SNOs for the next 14.0 days since TLE Epoch: 10/12/2024
Index Date Time (GOES-17) GOES-17 Lat,Lon FY3D Lat,Lon Distance(km) Time Diff (sec)
1 10/13/2024 09:59:05 -0.01,-104.75 0.96,-108.91 474.67 80
2 10/14/2024 09:37:47 -0.01,-104.76 -0.12,-104.39 42.11 80
3 10/16/2024 21:41:11 0.01,-104.75 -0.06,-105.16 45.78 80
4 10/17/2024 21:25:11 0.01,-104.76 0.98,-100.64 471.55 80
5 10/19/2024 09:47:05 -0.01,-104.80 0.24,-105.89 124.49 80
6 10/20/2024 09:25:46 -0.01,-104.80 -0.81,-101.37 392.18 80
7 10/21/2024 21:47:48 0.02,-104.78 -0.40,-106.65 213.32 80
8 10/22/2024 21:31:48 0.03,-104.79 0.61,-102.12 303.87 80
9 10/24/2024 09:53:42 -0.03,-104.83 0.58,-107.38 291.23 80
10 10/25/2024 09:32:23 -0.03,-104.84 -0.50,-102.86 225.92 80
